CW6575 Weather Reports


Display with metric or nautical units.
time (UTC)temp
F
wind
direction
speed
MPH
gust
MPH
rain 1hr
in
rain 24hr
in
rain mn
in
humidity
%
barometer
mb
20260510220033 64 335 2.0 4.0 0.00 0.00 0.00 72 1014.3
20260510214536 66 331 1.0 5.0 0.00 0.00 0.00 71 1014.0
20260510213030 66 355 3.0 8.0 0.00 0.00 0.00 70 1013.9
20260510211535 66 323 4.0 6.0 0.00 0.00 0.00 71 1013.9
20260510210030 67 339 2.0 6.0 0.00 0.00 0.00 71 1013.7
20260510204531 67 339 3.0 9.0 0.00 0.00 0.00 72 1013.7
20260510203029 67 342 4.0 8.0 0.00 0.00 0.00 70 1013.7
20260510201528 67 338 3.0 9.0 0.00 0.00 0.00 71 1013.8
20260510200046 67 334 3.0 8.0 0.00 0.00 0.00 73 1014.0
20260510194526 67 313 3.0 6.0 0.00 0.00 0.00 71 1013.8
20260510193038 67 11 3.0 9.0 0.00 0.00 0.00 74 1013.8
20260510191524 68 337 3.0 6.0 0.00 0.00 0.00 70 1013.5
20260510190026 68 324 3.0 10.0 0.00 0.00 0.00 67 1013.4
20260510184522 68 326 4.0 10.0 0.00 0.00 0.00 61 1013.1
20260510183038 71 333 2.0 8.0 0.00 0.00 0.00 51 1012.9
20260510181526 71 147 3.0 8.0 0.00 0.00 0.00 52 1013.0
20260510180019 68 355 1.0 10.0 0.00 0.00 0.00 63 1013.1
20260510174519 67 338 0.0 3.0 0.00 0.00 0.00 67 1013.3
20260510173016 66 335 0.0 6.0 0.00 0.00 0.00 67 1013.3
20260510171516 69 337 2.0 10.0 0.00 0.00 0.00 57 1013.4
20260510170016 70 307 2.0 5.0 0.00 0.00 0.00 54 1013.3
20260510164517 71 309 2.0 11.0 0.00 0.00 0.00 53 1013.3
20260510163014 71 182 3.0 11.0 0.00 0.00 0.00 54 1013.2
20260510161511 70 230 0.0 4.0 0.00 0.00 0.00 56 1013.5
20260510160012 69 140 1.0 6.0 0.00 0.00 0.00 53 1013.6
20260510154507 69 298 2.0 6.0 0.00 0.00 0.00 54 1014.0
20260510153006 68 319 2.0 6.0 0.00 0.00 0.00 58 1014.1
20260510151505 68 322 2.0 8.0 0.00 0.00 0.00 57 1014.1
20260510150004 68 327 1.0 9.0 0.00 0.00 0.00 61 1014.0
20260510144501 67 286 2.0 9.0 0.00 0.00 0.00 60 1013.8
20260510143058 66 137 3.0 8.0 0.00 0.00 0.00 66 1013.7
20260510141601 64 34 1.0 4.0 0.00 0.00 0.00 65 1013.6
20260510140054 64 349 1.0 6.0 0.00 0.00 0.00 65 1014.1
20260510134555 63 138 0.0 5.0 0.00 0.00 0.00 67 1014.1
20260510133101 62 178 1.0 6.0 0.00 0.00 0.00 70 1014.2
20260510131545 61 180 1.0 7.0 0.00 0.00 0.00 70 1014.1
20260510130038 61 305 0.0 3.0 0.00 0.00 0.00 70 1014.0
20260510124540 60 257 2.0 5.0 0.00 0.00 0.00 71 1013.9
20260510123040 60 148 1.0 8.0 0.00 0.00 0.00 75 1013.7
20260510121530 57 148 1.0 8.0 0.00 0.00 0.00 83 1013.6
20260510120027 51 148 1.0 3.0 0.00 0.00 0.00 93 1013.3
20260510114524 49 159 0.0 0.0 0.00 0.00 0.00 93 1012.9
20260510113021 48 159 0.0 3.0 0.00 0.00 0.00 93 1013.1
20260510111516 47 159 2.0 5.0 0.00 0.00 0.00 93 1013.0
20260510110014 47 156 1.0 3.0 0.00 0.00 0.00 93 1012.9
20260510104512 47 159 1.0 5.0 0.00 0.00 0.00 93 1012.8
20260510103012 47 159 1.0 3.0 0.00 0.00 0.00 92 1012.6
20260510101509 47 159 0.0 5.0 0.00 0.00 0.00 92 1012.3
20260510100009 47 172 0.0 0.0 0.00 0.00 0.00 92 1012.1
20260510094510 47 172 0.0 3.0 0.00 0.00 0.00 92 1011.9
20260510093006 47 172 0.0 2.0 0.00 0.00 0.00 92 1011.9
20260510091506 48 172 0.0 3.0 0.00 0.00 0.00 92 1011.6
20260510090004 48 164 2.0 5.0 0.00 0.00 0.00 92 1011.4
20260510084600 48 160 0.0 3.0 0.00 0.00 0.00 92 1011.5
20260510083058 48 160 0.0 0.0 0.00 0.00 0.00 92 1011.5
20260510081556 48 160 0.0 3.0 0.00 0.00 0.00 92 1011.4
20260510080059 47 156 0.0 3.0 0.00 0.00 0.00 92 1011.2
20260510074551 48 159 1.0 4.0 0.00 0.00 0.00 93 1011.3
20260510073104 47 161 0.0 0.0 0.00 0.00 0.00 92 1011.3
20260510071558 46 160 0.0 2.0 0.00 0.00 0.00 92 1011.3
20260510070048 46 160 0.0 2.0 0.00 0.00 0.00 92 1011.3
20260510064555 46 160 1.0 5.0 0.00 0.00 0.00 92 1011.1
20260510063048 46 177 0.0 3.0 0.00 0.00 0.00 92 1011.3
20260510061549 46 180 1.0 4.0 0.00 0.00 0.00 92 1011.3
20260510060046 46 169 0.0 0.0 0.00 0.00 0.00 92 1011.3
20260510054545 45 160 0.0 0.0 0.00 0.00 0.00 91 1011.4
20260510053045 45 159 0.0 3.0 0.00 0.00 0.00 91 1011.6
20260510051545 46 164 0.0 3.0 0.00 0.00 0.00 91 1011.6
20260510050043 46 153 0.0 3.0 0.00 0.00 0.00 90 1011.6
20260510044548 46 156 1.0 3.0 0.00 0.00 0.00 90 1011.7
20260510043038 46 155 1.0 4.0 0.00 0.00 0.00 90 1011.4
20260510041536 47 155 1.0 5.0 0.00 0.00 0.00 89 1011.0
20260510040032 47 165 2.0 5.0 0.00 0.00 0.00 88 1011.1
20260510034535 48 165 1.0 2.0 0.00 0.00 0.00 87 1011.0
20260510033031 48 164 0.0 2.0 0.00 0.00 0.00 87 1010.8
20260510031532 48 164 2.0 4.0 0.00 0.00 0.00 88 1010.7
20260510030026 48 164 1.0 5.0 0.00 0.00 0.00 87 1010.7
20260510024525 49 165 1.0 3.0 0.00 0.00 0.00 87 1010.7
20260510023024 48 165 1.0 3.0 0.00 0.00 0.00 86 1010.6
20260510021532 49 165 2.0 4.0 0.00 0.00 0.00 86 1010.3
20260510020020 50 165 1.0 4.0 0.00 0.00 0.00 84 1010.3
20260510014519 51 165 2.0 4.0 0.00 0.00 0.00 83 1010.1
20260510013018 51 165 1.0 3.0 0.00 0.00 0.00 81 1009.9
20260510011516 53 165 0.0 1.0 0.00 0.00 0.00 78 1009.5
20260510010015 54 165 0.0 3.0 0.00 0.00 0.00 76 1009.1
20260510004517 56 159 0.0 2.0 0.00 0.00 0.00 72 1008.8
20260510003015 59 319 0.0 2.0 0.00 0.00 0.00 63 1008.6
20260510001514 61 326 0.0 2.0 0.00 0.00 0.00 58 1008.5
20260510000018 62 321 1.0 4.0 0.00 0.00 0.00 57 1008.5
20260509234514 63 303 0.0 4.0 0.00 0.00 0.00 56 1008.3
20260509233013 64 302 1.0 5.0 0.00 0.00 0.00 54 1008.2
20260509231513 64 302 2.0 5.0 0.00 0.00 0.00 53 1008.2
20260509230011 65 304 2.0 5.0 0.00 0.00 0.00 52 1008.4
20260509224511 66 315 1.0 4.0 0.00 0.00 0.00 50 1008.4
20260509223011 66 205 1.0 4.0 0.00 0.00 0.00 50 1008.6
20260509221511 64 5 1.0 5.0 0.00 0.00 0.00 53 1008.7